| time (UTC) | temp C | wind direction | speed KPH | gust KPH | rain 1hr cm | rain 24hr cm | rain mn cm | humidity % | barometer mb |
| 20260503053059 | -17 | 281 | 0.0 | 6.4 | 0.00 | 0.76 | 0.00 | 1012.2 | |
| 20260503051554 | -17 | 281 | 1.6 | 8.0 | 0.00 | 0.76 | 0.00 | 1012.3 | |
| 20260503050049 | -17 | 281 | 1.6 | 6.4 | 0.00 | 0.76 | 0.00 | 1012.4 | |
| 20260503044547 | -17 | 281 | 4.8 | 8.0 | 0.00 | 0.79 | 0.00 | 1012.5 | |
| 20260503043041 | -17 | 281 | 4.8 | 9.7 | 0.00 | 0.79 | 0.00 | 1012.5 | |
| 20260503041539 | -17 | 281 | 3.2 | 8.0 | 0.00 | 0.79 | 0.00 | 1012.5 | |
| 20260503040031 | -17 | 281 | 0.0 | 3.2 | 0.00 | 0.79 | 0.00 | 1012.4 | |
| 20260503034527 | -17 | 281 | 3.2 | 6.4 | 0.00 | 0.81 | 0.00 | 1012.4 | |
| 20260503033022 | -17 | 281 | 0.0 | 0.0 | 0.00 | 0.81 | 0.00 | 1012.5 | |
| 20260503031518 | -17 | 281 | 0.0 | 0.0 | 0.00 | 0.81 | 0.00 | 1012.6 | |
| 20260503030017 | -17 | 281 | 0.0 | 0.0 | 0.00 | 0.81 | 0.00 | 1012.5 | |
| 20260503024509 | -17 | 281 | 0.0 | 0.0 | 0.00 | 0.84 | 0.00 | 1012.6 | |
| 20260503023005 | -17 | 281 | 0.0 | 0.0 | 0.00 | 0.84 | 0.00 | 1012.7 | |
| 20260503021605 | -17 | 281 | 0.0 | 1.6 | 0.00 | 0.84 | 0.00 | 1012.7 | |
| 20260503020101 | -17 | 281 | 0.0 | 0.0 | 0.00 | 0.84 | 0.00 | 1012.8 | |
| 20260503014555 | -17 | 281 | 0.0 | 3.2 | 0.00 | 0.86 | 0.00 | 1012.8 | |
| 20260503013048 | -17 | 281 | 0.0 | 8.0 | 0.00 | 0.86 | 0.00 | 1013.0 | |
| 20260503011552 | -17 | 281 | 3.2 | 8.0 | 0.00 | 0.86 | 0.00 | 1013.1 | |
| 20260503010040 | -17 | 281 | 3.2 | 8.0 | 0.00 | 0.86 | 0.00 | 1013.3 | |
| 20260503004533 | -17 | 281 | 0.0 | 0.0 | 0.00 | 0.99 | 0.00 | 1013.3 | |
| 20260503003030 | -17 | 281 | 0.0 | 0.0 | 0.00 | 0.99 | 0.00 | 1013.4 | |
| 20260503001525 | -17 | 281 | 0.0 | 8.0 | 0.00 | 0.99 | 0.00 | 1013.5 | |
| 20260503000020 | -17 | 281 | 0.0 | 6.4 | 0.00 | 0.99 | 0.00 | 1013.6 | |
| 20260502234516 | -17 | 281 | 1.6 | 6.4 | 0.00 | 0.99 | 0.00 | 1013.8 | |
| 20260502233012 | -17 | 281 | 4.8 | 8.0 | 0.00 | 0.99 | 0.00 | 1014.0 | |
| 20260502231516 | -17 | 281 | 0.0 | 3.2 | 0.00 | 0.99 | 0.00 | 1014.0 | |
| 20260502230004 | -17 | 281 | 4.8 | 8.0 | 0.00 | 0.99 | 0.00 | 1013.9 | |
| 20260502224602 | -17 | 281 | 0.0 | 0.0 | 0.00 | 0.99 | 0.00 | 1014.0 | |
| 20260502223055 | -17 | 281 | 0.0 | 8.0 | 0.00 | 0.99 | 0.00 | 1014.0 | |
| 20260502221554 | -17 | 282 | 8.0 | 11.3 | 0.00 | 0.99 | 0.00 | 1014.1 | |
| 20260502220050 | -17 | 283 | 0.0 | 8.0 | 0.00 | 0.99 | 0.00 | 1014.1 | |
| 20260502214547 | -17 | 283 | 1.6 | 6.4 | 0.00 | 0.99 | 0.99 | 1014.2 | |
| 20260502213040 | -17 | 283 | 0.0 | 3.2 | 0.00 | 0.99 | 0.99 | 1014.2 | |
| 20260502211540 | -17 | 283 | 0.0 | 6.4 | 0.00 | 0.99 | 0.99 | 1014.3 | |
| 20260502210036 | -17 | 283 | 0.0 | 8.0 | 0.00 | 0.99 | 0.99 | 1014.3 | |
| 20260502204531 | -17 | 283 | 0.0 | 0.0 | 0.00 | 0.99 | 0.99 | 1014.3 | |
| 20260502203028 | -17 | 283 | 0.0 | 8.0 | 0.00 | 0.99 | 0.99 | 1014.2 | |
| 20260502201527 | -17 | 283 | 1.6 | 8.0 | 0.03 | 0.99 | 0.99 | 1014.3 | |
| 20260502200020 | -17 | 283 | 0.0 | 11.3 | 0.03 | 0.99 | 0.99 | 1014.4 | |
| 20260502194514 | -17 | 283 | 6.4 | 14.5 | 0.03 | 0.99 | 0.99 | 1014.4 | |
| 20260502193010 | -17 | 281 | 8.0 | 17.7 | 0.05 | 0.99 | 0.99 | 1014.4 | |
| 20260502191506 | -17 | 320 | 1.6 | 8.0 | 0.03 | 0.99 | 0.99 | 1014.4 | |
| 20260502190002 | -17 | 321 | 6.4 | 20.9 | 0.03 | 0.99 | 0.99 | 1014.5 | |
| 20260502184610 | -17 | 31 | 1.6 | 6.4 | 0.03 | 0.99 | 0.99 | 1014.3 | |
| 20260502183055 | -17 | 31 | 3.2 | 8.0 | 0.00 | 0.97 | 0.97 | 1014.2 | |
| 20260502181552 | -17 | 31 | 0.0 | 3.2 | 0.00 | 0.97 | 0.97 | 1014.1 | |
| 20260502163032 | -17 | 307 | 0.0 | 0.0 | 0.00 | 0.97 | 0.97 | 1014.2 | |
| 20260502161517 | -17 | 307 | 0.0 | 0.0 | 0.00 | 0.97 | 0.97 | 1014.2 | |
| 20260502151604 | -17 | 307 | 1.6 | 3.2 | 0.03 | 0.97 | 0.97 | 1014.3 | |
| 20260502123009 | -17 | 314 | 3.2 | 14.5 | 0.05 | 0.89 | 0.89 | 1013.9 | |
| 20260502121505 | -17 | 314 | 3.2 | 9.7 | 0.08 | 0.89 | 0.89 | 1013.7 | |
| 20260502114558 | -17 | 315 | 6.4 | 12.9 | 0.08 | 0.84 | 0.84 | 1013.7 | |
| 20260502113054 | -17 | 315 | 0.0 | 9.7 | 0.10 | 0.84 | 0.84 | 1013.6 | |
| 20260502111549 | -17 | 315 | 0.0 | 8.0 | 0.08 | 0.79 | 0.79 | 1013.5 | |
| 20260502110048 | -17 | 315 | 0.0 | 6.4 | 0.10 | 0.79 | 0.79 | 1013.5 | |
| 20260502104538 | -17 | 315 | 1.6 | 12.9 | 0.08 | 0.76 | 0.76 | 1013.3 | |
| 20260502103034 | -17 | 315 | 1.6 | 12.9 | 0.10 | 0.71 | 0.71 | 1013.2 | |
| 20260502101531 | -17 | 315 | 0.0 | 12.9 | 0.10 | 0.71 | 0.71 | 1013.1 | |
| 20260502091512 | -17 | 281 | 0.0 | 11.3 | 0.10 | 0.61 | 0.61 | 1012.5 | |
| 20260502071535 | -17 | 266 | 4.8 | 14.5 | 0.10 | 0.43 | 0.43 | 1010.9 | |
| 20260502070031 | -17 | 5 | 11.3 | 19.3 | 0.10 | 0.38 | 0.38 | 1010.8 | |
| 20260502064531 | -17 | 22 | 9.7 | 14.5 | 0.10 | 0.36 | 0.36 | 1010.8 | |
| 20260502063022 | -17 | 321 | 0.0 | 0.0 | 0.08 | 0.33 | 0.33 | 1010.5 | |
| 20260502061517 | -17 | 321 | 0.0 | 3.2 | 0.08 | 0.33 | 0.33 | 1010.4 | |
| 20260502060013 | -17 | 321 | 0.0 | 8.0 | 0.05 | 0.28 | 0.28 | 1010.3 | |
| 20260502054517 | -17 | 321 | 1.6 | 9.7 | 0.05 | 0.25 | 0.25 | 1010.3 |